Regional Weather Roundup
Issued by NWS

Home | Current Version | Previous Version | Text Only | Print | Product List | Glossary Off
Versions: 1 2 3 4 5 6 7 8 9 10 11 12 13 14 15 16 17 18 19 20 21 22 23 24 25 26 27 28 29 30 31 32 33 34 35 36 37 38 39 40 41 42 43 44 45 46 47 48 49 50

000
ASUS43 KMPX 010701
RWRMN
WEATHER ROUNDUP FOR MINNESOTA
NATIONAL WEATHER SERVICE TWIN CITIES/CHANHASSEN MN
200 AM CDT MON SEP 01 2014


NOTE: "FAIR" INDICATES FEW OR NO CLOUDS BELOW 12,000 FEET WITH NO
SIGNIFICANT WEATHER AND/OR OBSTRUCTIONS TO VISIBILITY. N/A MEANS
CURRENT SKY AND/OR WEATHER CONDITIONS ARE NOT AVAILABLE.

MNZ060>063-068>070-010800-
   Twin Cities Metro

CITY           SKY/WX    TMP DP  RH WIND       PRES   REMARKS
TWIN CITIES    LGT RAIN  66  65  96 S8        29.64F
ST PAUL        LGT RAIN  65  64  97 S8        29.64F
CRYSTAL        CLOUDY    67  63  87 S8        29.63S
BLAINE         CLOUDY    66  66 100 S8        29.64F
LAKEVILLE      RAIN      63  63 100 CALM      29.65F
EDEN PRAIRIE   CLOUDY    66  64  93 S8        29.63F
SOUTH ST PAUL  LGT RAIN  66  65  94 S5        29.65F
LAKE ELMO      LGT RAIN  64  64 100 S5        29.66F
$$
MNZ001>005-007-008-013>017-022>024-027-028-010800-
   Northwest Minnesota

CITY           SKY/WX    TMP DP  RH WIND       PRES   REMARKS
BEMIDJI        CLOUDY    59  58  97 W5        29.64S
HALLOCK        CLOUDY    57  57 100 NW7       29.65S
ROSEAU         CLOUDY    61  55  82 W8        29.62S
WARROAD        CLOUDY    59  55  88 W7        29.61F
THIEF RVR FALL CLOUDY    57  55  94 W7        29.65R
CROOKSTON      PTCLDY    54  54 100 NW6       29.67R
FOSSTON        CLOUDY    54  52  94 CALM      29.66R FOG
DETROIT LAKES  MOCLDY    61  57  88 NW5       29.67F
MOORHEAD       CLEAR     57  57 100 NW6       29.67F
PARK RAPIDS    CLOUDY    60  59  96 W5        29.65S
MAHNOMEN       FAIR      57  56  97 CALM      29.66R
$$
MNZ006-009>011-018-025>026-010800-
   North Central Minnesota

CITY           SKY/WX    TMP DP  RH WIND       PRES   REMARKS
BAUDETTE       CLOUDY    59  57  93 CALM      29.59S
FLAG ISLAND    CLOUDY    61  57  88 NW16      29.57S FOG
INTL FALLS     CLOUDY    60  59  96 W5        29.58F
WASKISH        CLOUDY    61  59  94 W7        29.62R
BIG FORK       CLOUDY    61  59  94 CALM      29.62S
LONGVILLE      CLOUDY    63  61  94 CALM      29.64S
GRAND RAPIDS   CLOUDY    64  61  88 W3        29.63R
CRANE LAKE     CLOUDY    63  61  94 CALM      29.59S
ORR            CLOUDY    61  57  88 CALM      29.58S
COOK           CLOUDY    63  61  94 W3        29.60F
WALKER         FAIR      60  59  97 W5        29.64S
$$
MNZ012-019>021-037-010800-
   Northeast Minnesota

CITY           SKY/WX    TMP DP  RH WIND       PRES   REMARKS
DULUTH         LGT RAIN  64  61  90 W7        29.61S
ELY            DRIZZLE   63  63 100 CALM      29.59F
HIBBING        CLOUDY    64  61  90 W3        29.61S
EVELETH        DRIZZLE   63  61  94 CALM      29.61S
DULUTH HARBOR  RAIN      63  61  94 S7        29.59F
TWO HARBORS    LGT RAIN  63  57  82 CALM      29.58F
SILVER BAY     DRIZZLE   61  61 100 CALM      29.57F
GRAND MARAIS     N/A     65  61  87 W3        29.57F
G MARAIS ARPRT CLOUDY    61  57  88 S3        29.61F
$$
MNZ029>031-032-039>041-046>048-054>057-064-010800-
   West Central Minnesota

CITY           SKY/WX    TMP DP  RH WIND       PRES   REMARKS
FERGUS FALLS   FOG       61  59  94 N3        29.66F VSB 1/2
WHEATON        CLOUDY    61  59  94 W5        29.68F
MORRIS         CLOUDY    64  63  94 NW5       29.64F
ALEXANDRIA     CLOUDY    65  63  93 NW9       29.67F
ELBOW LAKE     FAIR      63  62  98 NW5       29.65F
WADENA         CLOUDY    63  61  94 W5        29.65F
GLENWOOD       CLOUDY    64  63  94 W6        29.67R
APPLETON       CLOUDY    63  61  94 W6        29.66F
BENSON         CLOUDY    63  61  94 CALM      29.65F
ORTONVILLE     CLOUDY    64  61  88 NW6       29.66F
MADISON        CLOUDY    63  61  94 W3        29.67R
WILLMAR        MOCLDY    66  63  88 CALM      29.66F
$$
MNZ033>034-036-042>043-049>051-058-059-010800-
   Central Minnesota

CITY           SKY/WX    TMP DP  RH WIND       PRES   REMARKS
ST CLOUD       CLOUDY    67  64  90 SW6       29.63S
SAUK CENTRE    CLOUDY    64  63  94 W5        29.65F
PAYNESVILLE    RAIN      64  64 100 S13       29.65F
AITKIN         CLOUDY    66  61  82 CALM      29.61F
PINE RIVER     CLOUDY    63  63 100 CALM      29.68S
BRAINERD       CLOUDY    65  63  93 NW6       29.63F
STAPLES        CLOUDY    63  63 100 W7        29.65F
LONG PRAIRIE   CLOUDY    64  63  94 W8        29.65F
LITTLE FALLS   CLOUDY    64  63  94 CALM      29.63F
LITCHFIELD     CLOUDY    64  64 100 W3        29.66S
BUFFALO        CLOUDY    65  63  93 S6        29.64S
MAPLE LAKE     CLOUDY    65  65  97 S3        29.65S
$$
MNZ037-044-045-052-053-010800-
   East Central Minnesota

CITY           SKY/WX    TMP DP  RH WIND       PRES   REMARKS
PRINCETON      CLOUDY    66  64  94 SE3       29.64S
MORA           DRIZZLE   61  59  94 CALM      29.64F
CAMBRIDGE      CLOUDY    66  59  77 CALM      29.62S
RUSH CITY      CLOUDY    64  63  94 S6        29.62F
MOOSE LAKE     LGT RAIN  64  63  94 S3        29.60S
HINCKLEY       RAIN      64  64 100 CALM      29.62F
CLOQUET        DRIZZLE   63  61  94 CALM      29.61F
MCGREGOR       CLOUDY    64  63  94 NW3       29.62F
$$
MNZ071>073-080-081-089-090-097-098-010800-
   Southwest Minnesota

CITY           SKY/WX    TMP DP  RH WIND       PRES   REMARKS
MONTEVIDEO     CLOUDY    64  63  94 NW5       29.67S
GRANITE FALLS  CLOUDY    63  62  96 S6        29.69R
CANBY          MOCLDY    63  61  93 W5        29.69S
MARSHALL       MOCLDY    64  59  82 NW5       29.66R
REDWOOD FALLS  CLOUDY    66  66 100 NW3       29.65F
OLIVIA         DRIZZLE   68  64  88 S6        29.65F
PIPESTONE      CLOUDY    63  61  94 CALM      29.71R
WINDOM         CLOUDY    64  63  94 CALM      29.67S
WORTHINGTON    MOCLDY    63  63 100 NW3       29.68F
JACKSON        CLOUDY    64  63  94 SE6       29.68S
TRACY          MOCLDY    65  64  96 CALM      29.68S THUNDER
SLAYTON        RAIN      64  64  98 W8        29.70R
$$
MNZ065>067-074>077-082>085-091>093-010800-
   South Central Minnesota

CITY           SKY/WX    TMP DP  RH WIND       PRES   REMARKS
MANKATO        CLOUDY    64  61  88 S5        29.66F
NEW ULM        CLOUDY    64  64 100 SE6       29.64F
ST JAMES       CLOUDY    66  64  94 SE8       29.68S
FAIRMONT       CLOUDY    63  59  88 S8        29.68R
GLENCOE        CLOUDY    65  62  90 CALM      29.63F
FARIBAULT      LGT RAIN  66  63  88 S3        29.66F
OWATONNA       LGT RAIN  64  63  94 S8        29.67F
WASECA         CLOUDY    61  55  82 S3        29.68F
ALBERT LEA     CLOUDY    64  63  94 S9        29.67F
$$
MNZ078>079-086>088-094>096-010800-
   Southeast Minnesota

CITY           SKY/WX    TMP DP  RH WIND       PRES   REMARKS
ROCHESTER      CLOUDY    64  61  90 SE13G18   29.69F
RED WING       CLOUDY    66  64  94 CALM      29.65F
STANTON        CLOUDY    66  63  89 CALM      29.64F
DODGE CENTER   CLOUDY    64  63  94 S8        29.68S
WINONA         CLOUDY    70  64  83 S3G17     29.68F
AUSTIN         CLOUDY    63  63 100 S7        29.68F
PRESTON        CLOUDY    63  64 100 CALM      29.71F
$$
ABBREVIATIONS USED IN REMARKS
   TC - TEMPERATURES IN CELSIUS
  WCI - WIND CHILL INDEX
   HX - HEAT INDEX
  VSB - VISIBILITY
$$


USA.gov is the U.S. government's official web portal to all federal, state and local government web resources and services.